Flag for Bermuda Weather past 2 weeks in Hamilton, Bermuda

Now
81 °F

Partly cloudy.


Feels Like: 85 °F
Forecast: 78 / 82 °F
Wind: 15 mph from West

Location: Bermuda

Current Time: Sep 16, 2014 at 10:43:35 PM

Latest Report: Sep 16, 2014 at 9:55 PM


Visibility: N/A

Pressure: 29.92 "Hg

Humidity: 79%

Dew point: 73 °F

Location of HamiltonLocation

Historic Weather in Hamilton — Graph

°F

Hamilton temperature yesterday

Maximum temperature yesterday: 86 °F (at 12:55 PM)
Minimum temperature yesterday: 77 °F (at 3:55 AM)
Average temperature yesterday: 81 °F

Past Weeks' High & Low Weather Summary

 TemperatureHumidityPressure
High86 °F (Sep 3, 2:55 PM)100% (Sep 12, 6:55 AM)30.24 "Hg (Sep 12, 6:55 AM)
Low75 °F (Sep 12, 6:55 AM)62% (Sep 7, 3:55 PM)29.89 "Hg (Sep 11, 7:55 PM)
Average81 °F79%30.11 "Hg
* Reported Sep 1 8:55 PM — Sep 16 8:55 PM, Hamilton, Weather by CustomWeather, © 2014

Note: Actual official high and low records may vary slightly from our data, if they occured in-between our weather recording intervals... More about our weather records

Advertising

Hamilton weather history for previous 24 hours

 ConditionsComfort  
Time TempWeatherWind HumidityBarometerVisibility
8:55 PM
Sep 16
81 °FPassing clouds.13 mph79%29.92 "HgN/A
7:55 PM81 °FBroken clouds.14 mph74%29.89 "HgN/A
6:55 PM81 °FBroken clouds.13 mph79%29.92 "HgN/A
5:55 PM82 °FBroken clouds.12 mph74%29.89 "HgN/A
4:55 PM82 °FBroken clouds.9 mph74%29.92 "HgN/A
3:55 PM82 °FScattered showers. Broken clouds.14 mph74%29.92 "HgN/A
2:55 PM81 °FScattered showers. Broken clouds.12 mph79%29.92 "HgN/A
1:55 PM84 °FBroken clouds.14 mph74%29.95 "HgN/A
12:55 PM84 °FBroken clouds.10 mph74%29.98 "HgN/A
11:55 AM84 °FScattered clouds.14 mph74%29.98 "HgN/A
10:55 AM81 °FScattered clouds.9 mph84%30.01 "HgN/A
10:04 AM84 °FRain showers. Broken clouds.14 mph74%30.01 "HgN/A
9:55 AM84 °FScattered showers. Broken clouds.10 mph74%30.01 "HgN/A
8:55 AM82 °FScattered clouds.10 mph79%30.01 "HgN/A
7:55 AM79 °FPartly cloudy.9 mph84%30.01 "HgN/A
6:55 AM79 °FPartly cloudy.9 mph79%30.01 "HgN/A
5:55 AM79 °FPassing clouds.9 mph79%30.01 "HgN/A
4:55 AM79 °FPassing clouds.8 mph79%30.01 "HgN/A
3:55 AM79 °FPassing clouds.7 mph84%30.04 "HgN/A
2:55 AM79 °FPassing clouds.6 mph84%30.04 "HgN/A
1:55 AM79 °FPartly cloudy.6 mph84%30.04 "HgN/A
12:55 AM79 °FPassing clouds.5 mph79%30.07 "HgN/A
11:55 PM
Sep 15
79 °FPassing clouds.6 mph79%30.07 "HgN/A
10:55 PM79 °FPassing clouds.6 mph79%30.09 "HgN/A
Weather by CustomWeather, © 2014

See weather overviewHow to use our weather pages